• In Österreich
  • Länderverzeichnis
  • Für 7 Tage
  • Wassertemperatur
  • Satellitenkarten
  • Wetterkarte
  • News
  • Widgets
  • user-avatar
    Anmelden

    Stündliche Wetter Cordoba

    Heute, 26 Mai, Samstag

    Zeit Temperatur Niederschläge Wind Luftdruck Luftfeuchtigkeit
    00:00 +12°C° 0 mm 4 m/S 724 mmHg 69%
    01:00 +12°C° 0 mm 4 m/S 724 mmHg 69%
    02:00 +12°C° 0 mm 4 m/S 723 mmHg 71%
    03:00 +12°C° 0 mm 4 m/S 723 mmHg 72%
    04:00 +12°C° 0 mm 4 m/S 723 mmHg 72%
    05:00 +12°C° 0 mm 4 m/S 723 mmHg 73%
    06:00 +12°C° 0 mm 4 m/S 722 mmHg 72%
    07:00 +12°C° 0 mm 4 m/S 722 mmHg 71%
    08:00 +12°C° 0 mm 4 m/S 722 mmHg 70%
    09:00 +15°C° 0 mm 5 m/S 722 mmHg 61%
    10:00 +19°C° 0 mm 5 m/S 722 mmHg 52%
    11:00 +21°C° 0 mm 6 m/S 722 mmHg 43%
    12:00 +22°C° 0 mm 6 m/S 722 mmHg 42%
    13:00 +23°C° 0 mm 6 m/S 722 mmHg 40%
    14:00 +24°C° 0 mm 6 m/S 721 mmHg 39%
    15:00 +23°C° 0 mm 6 m/S 721 mmHg 44%
    16:00 +21°C° 0 mm 5 m/S 721 mmHg 49%
    17:00 +20°C° 0 mm 4 m/S 721 mmHg 54%
    18:00 +19°C° 0 mm 4 m/S 721 mmHg 58%
    19:00 +18°C° 0 mm 3 m/S 722 mmHg 61%
    20:00 +17°C° 0 mm 3 m/S 722 mmHg 65%
    21:00 +16°C° 0 mm 3 m/S 723 mmHg 67%
    22:00 +16°C° 0 mm 2 m/S 723 mmHg 69%
    23:00 +16°C° 0 mm 2 m/S 723 mmHg 72%

    Morgen, 27 Mai, Sonntag

    Zeit Temperatur Niederschläge Wind Luftdruck Luftfeuchtigkeit
    00:00 +15°C° 0 mm 2 m/S 723 mmHg 73%
    01:00 +15°C° 0 mm 2 m/S 723 mmHg 75%
    02:00 +15°C° 0 mm 1 m/S 724 mmHg 76%
    03:00 +15°C° 0 mm 1 m/S 723 mmHg 76%
    04:00 +14°C° 0 mm 1 m/S 723 mmHg 77%
    05:00 +14°C° 0 mm 1 m/S 723 mmHg 77%
    06:00 +15°C° 0 mm 1 m/S 724 mmHg 76%
    07:00 +15°C° 0 mm 1 m/S 724 mmHg 75%
    08:00 +16°C° 0 mm 1 m/S 724 mmHg 73%
    09:00 +19°C° 0 mm 1 m/S 724 mmHg 68%
    10:00 +20°C° 0 mm 2 m/S 725 mmHg 62%
    11:00 +23°C° 0 mm 2 m/S 725 mmHg 56%
    12:00 +24°C° 0 mm 3 m/S 724 mmHg 57%
    13:00 +23°C° 0 mm 4 m/S 723 mmHg 58%
    14:00 +25°C° 0 mm 4 m/S 723 mmHg 59%
    15:00 +23°C° 0 mm 4 m/S 722 mmHg 64%
    16:00 +22°C° 0 mm 4 m/S 722 mmHg 70%
    17:00 +21°C° 0 mm 3 m/S 722 mmHg 76%
    18:00 +20°C° 0 mm 3 m/S 722 mmHg 81%
    19:00 +19°C° 0 mm 3 m/S 722 mmHg 87%
    20:00 +18°C° 0 mm 3 m/S 722 mmHg 92%
    21:00 +18°C° 0 mm 4 m/S 722 mmHg 92%
    22:00 +19°C° 0 mm 4 m/S 722 mmHg 91%
    23:00 +19°C° 0 mm 4 m/S 721 mmHg 91%

    übermorgen, 28 Mai, Montag

    Zeit Temperatur Niederschläge Wind Luftdruck Luftfeuchtigkeit
    00:00 +19°C° 0 mm 4 m/S 721 mmHg 91%
    01:00 +19°C° 0 mm 4 m/S 721 mmHg 92%
    02:00 +18°C° 0 mm 4 m/S 720 mmHg 92%
    03:00 +18°C° 0 mm 4 m/S 720 mmHg 92%
    04:00 +18°C° 0 mm 4 m/S 719 mmHg 92%
    05:00 +19°C° 0 mm 4 m/S 719 mmHg 91%
    06:00 +19°C° 0 mm 4 m/S 719 mmHg 89%
    07:00 +19°C° 0 mm 4 m/S 719 mmHg 87%
    08:00 +20°C° 0 mm 5 m/S 720 mmHg 85%
    09:00 +22°C° 0 mm 6 m/S 720 mmHg 75%
    10:00 +24°C° 0 mm 8 m/S 720 mmHg 64%
    11:00 +27°C° 0 mm 9 m/S 721 mmHg 54%
    12:00 +28°C° 0 mm 9 m/S 720 mmHg 52%
    13:00 +29°C° 0 mm 8 m/S 719 mmHg 49%
    14:00 +31°C° 0 mm 8 m/S 718 mmHg 47%
    15:00 +29°C° 0 mm 7 m/S 718 mmHg 51%
    16:00 +28°C° 0 mm 6 m/S 718 mmHg 54%
    17:00 +27°C° 0 mm 5 m/S 718 mmHg 58%
    18:00 +26°C° 0 mm 4 m/S 718 mmHg 61%
    19:00 +25°C° 0 mm 4 m/S 719 mmHg 64%
    20:00 +23°C° 0 mm 4 m/S 719 mmHg 67%
    21:00 +23°C° 0 mm 4 m/S 719 mmHg 68%
    22:00 +22°C° 0 mm 4 m/S 719 mmHg 69%
    23:00 +22°C° 0 mm 4 m/S 719 mmHg 70%

    29 Mai, Dienstag

    Zeit Temperatur Niederschläge Wind Luftdruck Luftfeuchtigkeit
    00:00 +21°C° 0 mm 4 m/S 719 mmHg 70%
    01:00 +21°C° 0 mm 5 m/S 719 mmHg 70%
    02:00 +21°C° 0 mm 5 m/S 718 mmHg 70%
    03:00 +20°C° 0 mm 5 m/S 718 mmHg 70%
    04:00 +20°C° 0 mm 5 m/S 718 mmHg 70%
    05:00 +20°C° 0 mm 4 m/S 717 mmHg 70%
    06:00 +20°C° 0 mm 4 m/S 718 mmHg 69%
    07:00 +20°C° 0 mm 4 m/S 718 mmHg 69%
    08:00 +20°C° 0 mm 4 m/S 719 mmHg 68%
    09:00 +22°C° 0 mm 5 m/S 719 mmHg 62%
    10:00 +25°C° 0 mm 5 m/S 720 mmHg 55%
    11:00 +28°C° 0 mm 5 m/S 720 mmHg 48%
    12:00 +28°C° 0 mm 4 m/S 720 mmHg 47%
    13:00 +29°C° 0 mm 4 m/S 720 mmHg 46%
    14:00 +29°C° 0 mm 3 m/S 720 mmHg 45%
    15:00 +27°C° 0 mm 5 m/S 720 mmHg 52%
    16:00 +24°C° 0 mm 7 m/S 721 mmHg 59%
    17:00 +22°C° 0 mm 8 m/S 721 mmHg 66%
    18:00 +20°C° 0 mm 8 m/S 722 mmHg 60%
    19:00 +17°C° 0 mm 8 m/S 723 mmHg 54%
    20:00 +15°C° 0 mm 8 m/S 724 mmHg 48%
    21:00 +15°C° 0 mm 7 m/S 725 mmHg 46%
    22:00 +14°C° 0 mm 6 m/S 726 mmHg 45%
    23:00 +14°C° 0 mm 6 m/S 726 mmHg 43%

    30 Mai, Mittwoch

    Zeit Temperatur Niederschläge Wind Luftdruck Luftfeuchtigkeit
    00:00 +14°C° 0,1 mm 5 m/S 726 mmHg 42%
    01:00 +13°C° 0,1 mm 5 m/S 727 mmHg 42%
    02:00 +13°C° 0,1 mm 5 m/S 727 mmHg 42%
    03:00 +13°C° 0 mm 5 m/S 727 mmHg 42%
    04:00 +12°C° 0 mm 5 m/S 727 mmHg 42%
    05:00 +12°C° 0 mm 5 m/S 726 mmHg 42%
    06:00 +12°C° 0 mm 4 m/S 727 mmHg 41%
    07:00 +11°C° 0 mm 4 m/S 727 mmHg 40%
    08:00 +11°C° 0 mm 4 m/S 728 mmHg 39%
    09:00 +12°C° 0 mm 4 m/S 728 mmHg 38%
    10:00 +13°C° 0 mm 4 m/S 728 mmHg 36%
    11:00 +13°C° 0 mm 4 m/S 728 mmHg 35%
    12:00 +14°C° 0 mm 4 m/S 728 mmHg 34%
    13:00 +15°C° 0 mm 4 m/S 728 mmHg 34%
    14:00 +15°C° 0 mm 4 m/S 727 mmHg 33%
    15:00 +15°C° 0 mm 4 m/S 727 mmHg 36%
    16:00 +14°C° 0 mm 4 m/S 727 mmHg 39%
    17:00 +13°C° 0 mm 4 m/S 727 mmHg 43%
    18:00 +12°C° 0 mm 4 m/S 728 mmHg 46%
    19:00 +11°C° 0 mm 4 m/S 729 mmHg 50%
    20:00 +10°C° 0 mm 3 m/S 729 mmHg 54%
    21:00 +9°C° 0 mm 3 m/S 730 mmHg 53%
    22:00 +9°C° 0 mm 3 m/S 730 mmHg 53%
    23:00 +9°C° 0 mm 3 m/S 730 mmHg 53%

    31 Mai, Donnerstag

    Zeit Temperatur Niederschläge Wind Luftdruck Luftfeuchtigkeit
    00:00 +8°C° 0 mm 3 m/S 730 mmHg 52%
    01:00 +8°C° 0 mm 3 m/S 730 mmHg 51%
    02:00 +8°C° 0 mm 3 m/S 730 mmHg 50%
    03:00 +8°C° 0 mm 3 m/S 730 mmHg 51%
    04:00 +7°C° 0 mm 3 m/S 730 mmHg 52%
    05:00 +7°C° 0 mm 3 m/S 730 mmHg 53%
    06:00 +7°C° 0 mm 3 m/S 730 mmHg 54%
    07:00 +7°C° 0 mm 3 m/S 731 mmHg 55%
    08:00 +7°C° 0 mm 3 m/S 731 mmHg 57%
    09:00 +8°C° 0 mm 3 m/S 731 mmHg 53%
    10:00 +9°C° 0 mm 3 m/S 731 mmHg 49%
    11:00 +11°C° 0 mm 3 m/S 731 mmHg 46%
    12:00 +11°C° 0 mm 3 m/S 730 mmHg 44%
    13:00 +12°C° 0 mm 3 m/S 729 mmHg 42%
    14:00 +12°C° 0 mm 3 m/S 729 mmHg 41%
    15:00 +12°C° 0 mm 3 m/S 728 mmHg 44%
    16:00 +12°C° 0 mm 2 m/S 728 mmHg 47%
    17:00 +10°C° 0 mm 2 m/S 728 mmHg 51%
    18:00 +9°C° 0 mm 2 m/S 729 mmHg 54%
    19:00 +9°C° 0 mm 1 m/S 729 mmHg 58%
    20:00 +9°C° 0 mm 1 m/S 729 mmHg 61%
    21:00 +8°C° 0 mm 1 m/S 729 mmHg 63%
    22:00 +8°C° 0 mm 1 m/S 729 mmHg 66%
    23:00 +7°C° 0 mm 1 m/S 730 mmHg 68%
    Mehr zeigen